QPF
0.01 0.03 0.02 0.00 0.00 0.00 0.00 0.00 0.00 0.00 0.00 0.00 0.00 0.00 0.00 0.00 0.00 0.00 0.00 0.00 0.00 0.00 0.00 0.01 0.01 0.02 0.03 0.03 0.03 0.04 0.05 0.05 0.04 0.04 0.05 0.04 0.03 0.05 0.06 0.06 0.08 0.11 0.18
0.01 0.01 0.00 0.00 0.01 0.01 0.00 0.00 0.00 0.00 0.00 0.00 0.00 0.00 0.00 0.00 0.00 0.00 0.00 0.00 0.00 0.00 0.00 0.00 0.01 0.02 0.03 0.04 0.04 0.06 0.06 0.05 0.05 0.05 0.06 0.06 0.05 0.04 0.04 0.06 0.07 0.11 0.20
0.01 0.01 0.00 0.00 0.01 0.01 0.00 0.01 0.00 0.00 0.00 0.00 0.00 0.00 0.00 0.00 0.00 0.00 0.00 0.01 0.01 0.00 0.00 0.00 0.00 0.01 0.02 0.03 0.04 0.06 0.06 0.06 0.07 0.05 0.06 0.08 0.08 0.08 0.05 0.05 0.06 0.09 0.15
0.00 0.00 0.00 0.00 0.00 0.00 0.00 0.01 0.00 0.00 0.00 0.00 0.00 0.00 0.00 0.00 0.00 0.00 0.01 0.01 0.00 0.00 0.00 0.00 0.00 0.01 0.01 0.02 0.04 0.05 0.07 0.08 0.08 0.06 0.05 0.07 0.09 0.10 0.09 0.06 0.05 0.05 0.08
0.00 0.00 0.00 0.00 0.00 0.00 0.00 0.00 0.00 0.00 0.00 0.00 0.00 0.00 0.00 0.00 0.00 0.00 0.00 0.01 0.00 0.00 0.00 0.00 0.00 0.01 0.01 0.02 0.03 0.04 0.07 0.08 0.08 0.08 0.06 0.06 0.08 0.08 0.10 0.10 0.08 0.07 0.05
0.00 0.00 0.00 0.00 0.00 0.00 0.00 0.00 0.00 0.00 0.00 0.00 0.00 0.00 0.00 0.00 0.00 0.00 0.00 0.00 0.00 0.00 0.00 0.00 0.00 0.01 0.01 0.02 0.03 0.05 0.07 0.07 0.08 0.08 0.07 0.08 0.07 0.06 0.08 0.10 0.10 0.10 0.06
0.00 0.00 0.00 0.00 0.00 0.00 0.00 0.00 0.00 0.00 0.00 0.00 0.00 0.00 0.00 0.00 0.00 0.00 0.00 0.00 0.00 0.00 0.01 0.01 0.01 0.01 0.02 0.02 0.03 0.04 0.06 0.06 0.06 0.06 0.07 0.07 0.05 0.06 0.08 0.11 0.10 0.10 0.08
0.00 0.00 0.00 0.00 0.00 0.00 0.00 0.00 0.00 0.00 0.00 0.00 0.00 0.00 0.00 0.00 0.00 0.00 0.00 0.00 0.00 0.01 0.01 0.01 0.01 0.02 0.02 0.02 0.03 0.03 0.03 0.04 0.05 0.04 0.05 0.05 0.03 0.04 0.07 0.09 0.10 0.10 0.09
0.00 0.00 0.00 0.00 0.00 0.00 0.00 0.00 0.00 0.00 0.00 0.00 0.00 0.00 0.00 0.00 0.00 0.00 0.00 0.00 0.00 0.01 0.00 0.00 0.01 0.01 0.02 0.02 0.03 0.04 0.04 0.04 0.05 0.05 0.05 0.04 0.04 0.04 0.05 0.06 0.08 0.09 0.10
0.00 0.00 0.00 0.00 0.00 0.00 0.00 0.00 0.00 0.00 0.00 0.00 0.00 0.00 0.00 0.00 0.00 0.00 0.00 0.00 0.01 0.00 0.00 0.01 0.01 0.02 0.02 0.01 0.02 0.03 0.04 0.04 0.05 0.04 0.04 0.06 0.06 0.06 0.05 0.06 0.06 0.07 0.09
0.00 0.00 0.00 0.00 0.00 0.00 0.00 0.00 0.00 0.00 0.00 0.00 0.00 0.00 0.00 0.00 0.00 0.00 0.00 0.00 0.01 0.01 0.01 0.02 0.01 0.01 0.02 0.02 0.02 0.03 0.03 0.04 0.05 0.04 0.04 0.07 0.07 0.06 0.07 0.07 0.06 0.07 0.07
0.00 0.00 0.00 0.00 0.00 0.00 0.00 0.00 0.00 0.00 0.00 0.00 0.00 0.00 0.00 0.00 0.00 0.00 0.00 0.00 0.01 0.01 0.01 0.02 0.01 0.00 0.00 0.02 0.02 0.02 0.02 0.04 0.04 0.04 0.05 0.05 0.04 0.05 0.07 0.08 0.07 0.07 0.07
0.00 0.00 0.00 0.00 0.00 0.00 0.00 0.00 0.00 0.00 0.00 0.00 0.00 0.00 0.00 0.00 0.00 0.00 0.00 0.00 0.01 0.01 0.01 0.02 0.02 0.00 0.00 0.01 0.02 0.02 0.01 0.02 0.02 0.02 0.03 0.04 0.04 0.06 0.07 0.07 0.06 0.07 0.06
0.00 0.00 0.00 0.00 0.00 0.00 0.00 0.00 0.00 0.00 0.00 0.00 0.00 0.00 0.00 0.00 0.00 0.00 0.00 0.01 0.01 0.01 0.01 0.03 0.02 0.01 0.01 0.02 0.02 0.01 0.00 0.01 0.01 0.02 0.02 0.03 0.04 0.06 0.07 0.06 0.06 0.06 0.07
0.00 0.00 0.00 0.00 0.00 0.00 0.00 0.00 0.00 0.00 0.00 0.00 0.00 0.00 0.00 0.00 0.00 0.00 0.00 0.00 0.01 0.01 0.01 0.02 0.03 0.02 0.01 0.01 0.01 0.00 0.01 0.01 0.02 0.02 0.02 0.01 0.02 0.02 0.02 0.03 0.05 0.06 0.08
0.00 0.00 0.00 0.00 0.00 0.00 0.00 0.00 0.00 0.00 0.00 0.00 0.00 0.00 0.00 0.00 0.00 0.00 0.00 0.00 0.01 0.01 0.01 0.01 0.02 0.03 0.03 0.01 0.00 0.00 0.01 0.01 0.02 0.02 0.01 0.01 0.01 0.01 0.01 0.01 0.01 0.02 0.04
0.00 0.00 0.00 0.00 0.00 0.00 0.00 0.00 0.00 0.00 0.00 0.00 0.00 0.00 0.00 0.00 0.00 0.00 0.00 0.00 0.00 0.01 0.01 0.01 0.02 0.02 0.03 0.02 0.00 0.00 0.01 0.01 0.01 0.01 0.01 0.00 0.01 0.01 0.01 0.01 0.01 0.01 0.01
0.00 0.00 0.00 0.00 0.00 0.00 0.00 0.00 0.00 0.00 0.00 0.00 0.00 0.00 0.00 0.00 0.00 0.00 0.00 0.00 0.00 0.00 0.01 0.02 0.03 0.03 0.03 0.02 0.01 0.01 0.01 0.00 0.00 0.00 0.00 0.00 0.01 0.01 0.01 0.01 0.02 0.02 0.02
0.00 0.00 0.00 0.00 0.00 0.00 0.00 0.00 0.00 0.00 0.00 0.00 0.00 0.00 0.00 0.00 0.00 0.00 0.00 0.00 0.00 0.00 0.00 0.01 0.02 0.04 0.05 0.04 0.03 0.02 0.01 0.00 0.00 0.00 0.00 0.00 0.01 0.02 0.02 0.01 0.01 0.02 0.02
0.00 0.00 0.00 0.00 0.00 0.00 0.00 0.00 0.00 0.00 0.00 0.00 0.00 0.00 0.00 0.00 0.00 0.00 0.00 0.00 0.00 0.00 0.00 0.01 0.01 0.02 0.04 0.05 0.04 0.02 0.01 0.01 0.01 0.01 0.01 0.00 0.01 0.02 0.03 0.03 0.03 0.02 0.03
0.00 0.00 0.00 0.00 0.00 0.00 0.00 0.00 0.00 0.00 0.00 0.00 0.00 0.00 0.00 0.00 0.00 0.00 0.00 0.00 0.00 0.00 0.00 0.00 0.01 0.01 0.03 0.05 0.05 0.03 0.02 0.01 0.02 0.02 0.01 0.01 0.01 0.01 0.02 0.03 0.03 0.03 0.03
0.00 0.00 0.00 0.00 0.00 0.00 0.00 0.00 0.00 0.00 0.00 0.00 0.00 0.00 0.00 0.00 0.00 0.00 0.00 0.00 0.00 0.01 0.01 0.01 0.01 0.01 0.02 0.03 0.05 0.04 0.04 0.03 0.03 0.03 0.02 0.02 0.02 0.01 0.01 0.02 0.03 0.02 0.02
0.00 0.00 0.00 0.00 0.00 0.00 0.00 0.00 0.00 0.00 0.00 0.00 0.00 0.00 0.00 0.00 0.00 0.00 0.00 0.00 0.00 0.01 0.01 0.01 0.02 0.01 0.02 0.03 0.05 0.05 0.05 0.05 0.04 0.04 0.04 0.03 0.03 0.02 0.01 0.01 0.01 0.02 0.01
0.00 0.00 0.00 0.00 0.00 0.00 0.00 0.00 0.00 0.00 0.00 0.00 0.00 0.00 0.00 0.00 0.00 0.00 0.00 0.00 0.00 0.00 0.01 0.01 0.02 0.02 0.03 0.04 0.05 0.07 0.07 0.06 0.06 0.05 0.05 0.04 0.04 0.03 0.02 0.01 0.01 0.01 0.01
0.00 0.00 0.00 0.00 0.00 0.00 0.00 0.00 0.00 0.00 0.00 0.00 0.00 0.00 0.00 0.00 0.00 0.00 0.00 0.00 0.00 0.00 0.01 0.01 0.02 0.03 0.03 0.05 0.08 0.09 0.08 0.07 0.07 0.07 0.06 0.05 0.05 0.04 0.03 0.02 0.01 0.01 0.01
0.00 0.00 0.00 0.00 0.00 0.00 0.00 0.00 0.00 0.00 0.00 0.00 0.00 0.00 0.00 0.00 0.00 0.00 0.00 0.00 0.00 0.00 0.00 0.01 0.01 0.02 0.02 0.04 0.05 0.07 0.07 0.06 0.07 0.07 0.07 0.06 0.07 0.06 0.04 0.03 0.02 0.01 0.01
MSLP
1010.64 1010.51 1010.42 1010.36 1010.35 1010.38 1010.47 1010.64 1010.89 1011.22 1011.62 1012.06 1012.50 1012.91 1013.24 1013.46 1013.55 1013.53 1013.42 1013.27 1013.13 1013.03 1013.01 1013.08 1013.20 1013.35 1013.47 1013.51 1013.45 1013.27 1012.99 1012.65 1012.30 1011.99 1011.77 1011.64 1011.60 1011.64 1011.70 1011.74 1011.75 1011.70 1011.61
1011.19 1010.99 1010.82 1010.68 1010.56 1010.50 1010.50 1010.59 1010.79 1011.09 1011.50 1011.97 1012.45 1012.91 1013.28 1013.52 1013.62 1013.59 1013.46 1013.29 1013.13 1013.02 1013.00 1013.07 1013.21 1013.37 1013.51 1013.57 1013.53 1013.37 1013.11 1012.80 1012.48 1012.21 1012.02 1011.93 1011.92 1011.98 1012.05 1012.10 1012.10 1012.03 1011.90
1012.04 1011.78 1011.52 1011.28 1011.06 1010.88 1010.77 1010.75 1010.87 1011.11 1011.47 1011.92 1012.40 1012.86 1013.23 1013.48 1013.58 1013.55 1013.41 1013.23 1013.06 1012.94 1012.92 1013.00 1013.14 1013.31 1013.46 1013.54 1013.51 1013.38 1013.15 1012.87 1012.60 1012.37 1012.23 1012.18 1012.21 1012.29 1012.38 1012.44 1012.43 1012.35 1012.21
1013.11 1012.79 1012.46 1012.14 1011.82 1011.52 1011.29 1011.16 1011.16 1011.30 1011.57 1011.95 1012.37 1012.79 1013.13 1013.36 1013.44 1013.40 1013.26 1013.07 1012.90 1012.79 1012.77 1012.84 1012.99 1013.16 1013.32 1013.41 1013.40 1013.30 1013.11 1012.88 1012.66 1012.49 1012.39 1012.38 1012.45 1012.55 1012.66 1012.72 1012.71 1012.63 1012.49
1014.27 1013.91 1013.54 1013.16 1012.76 1012.38 1012.04 1011.79 1011.66 1011.67 1011.82 1012.08 1012.40 1012.73 1013.00 1013.18 1013.23 1013.17 1013.02 1012.84 1012.67 1012.56 1012.54 1012.62 1012.76 1012.94 1013.10 1013.20 1013.22 1013.16 1013.02 1012.85 1012.68 1012.56 1012.51 1012.53 1012.62 1012.74 1012.85 1012.91 1012.91 1012.83 1012.69
1015.36 1015.00 1014.63 1014.23 1013.79 1013.35 1012.94 1012.58 1012.33 1012.21 1012.21 1012.33 1012.51 1012.72 1012.89 1012.99 1012.99 1012.90 1012.74 1012.55 1012.39 1012.28 1012.26 1012.33 1012.47 1012.64 1012.81 1012.93 1012.98 1012.96 1012.88 1012.77 1012.65 1012.58 1012.57 1012.61 1012.70 1012.82 1012.92 1012.98 1012.98 1012.91 1012.78
1016.26 1015.94 1015.60 1015.23 1014.81 1014.35 1013.89 1013.47 1013.11 1012.86 1012.72 1012.68 1012.72 1012.79 1012.85 1012.86 1012.80 1012.66 1012.48 1012.28 1012.11 1011.99 1011.96 1012.01 1012.14 1012.30 1012.47 1012.61 1012.70 1012.72 1012.69 1012.63 1012.57 1012.54 1012.54 1012.59 1012.67 1012.77 1012.85 1012.90 1012.89 1012.83 1012.73
1016.89 1016.65 1016.38 1016.07 1015.70 1015.28 1014.82 1014.36 1013.94 1013.58 1013.32 1013.15 1013.04 1012.98 1012.93 1012.84 1012.71 1012.53 1012.31 1012.08 1011.88 1011.74 1011.68 1011.70 1011.80 1011.95 1012.11 1012.25 1012.36 1012.43 1012.45 1012.43 1012.41 1012.40 1012.42 1012.45 1012.51 1012.58 1012.63 1012.66 1012.65 1012.61 1012.54
1017.25 1017.10 1016.93 1016.71 1016.43 1016.07 1015.65 1015.19 1014.74 1014.32 1013.97 1013.69 1013.47 1013.30 1013.15 1012.98 1012.78 1012.55 1012.28 1012.02 1011.78 1011.59 1011.48 1011.45 1011.49 1011.60 1011.73 1011.87 1011.99 1012.07 1012.13 1012.15 1012.15 1012.15 1012.16 1012.18 1012.21 1012.24 1012.27 1012.28 1012.28 1012.26 1012.23
1017.37 1017.32 1017.26 1017.15 1016.97 1016.69 1016.33 1015.91 1015.46 1015.03 1014.63 1014.29 1014.00 1013.75 1013.53 1013.30 1013.04 1012.76 1012.45 1012.13 1011.83 1011.58 1011.39 1011.28 1011.25 1011.28 1011.36 1011.46 1011.57 1011.66 1011.72 1011.76 1011.77 1011.78 1011.77 1011.77 1011.78 1011.78 1011.79 1011.80 1011.81 1011.83 1011.85
1017.34 1017.39 1017.43 1017.43 1017.33 1017.15 1016.86 1016.50 1016.09 1015.66 1015.26 1014.90 1014.59 1014.31 1014.05 1013.78 1013.49 1013.17 1012.81 1012.44 1012.07 1011.73 1011.44 1011.23 1011.09 1011.03 1011.03 1011.07 1011.13 1011.19 1011.24 1011.27 1011.28 1011.27 1011.26 1011.24 1011.23 1011.22 1011.23 1011.26 1011.30 1011.36 1011.43
1017.26 1017.40 1017.52 1017.59 1017.58 1017.46 1017.25 1016.95 1016.59 1016.21 1015.84 1015.50 1015.19 1014.92 1014.65 1014.38 1014.07 1013.73 1013.33 1012.90 1012.46 1012.03 1011.63 1011.30 1011.04 1010.86 1010.75 1010.70 1010.68 1010.69 1010.70 1010.70 1010.69 1010.67 1010.64 1010.61 1010.60 1010.60 1010.63 1010.68 1010.77 1010.89 1011.03
1017.22 1017.41 1017.58 1017.70 1017.74 1017.67 1017.51 1017.27 1016.96 1016.64 1016.32 1016.02 1015.75 1015.51 1015.27 1015.01 1014.71 1014.35 1013.93 1013.46 1012.95 1012.43 1011.93 1011.47 1011.09 1010.78 1010.55 1010.38 1010.27 1010.20 1010.14 1010.09 1010.04 1009.99 1009.95 1009.92 1009.91 1009.94 1010.00 1010.11 1010.25 1010.43 1010.63
1017.22 1017.45 1017.65 1017.78 1017.84 1017.80 1017.67 1017.47 1017.21 1016.94 1016.68 1016.44 1016.22 1016.03 1015.83 1015.60 1015.31 1014.96 1014.53 1014.02 1013.46 1012.87 1012.28 1011.72 1011.22 1010.78 1010.43 1010.14 1009.92 1009.74 1009.60 1009.48 1009.38 1009.29 1009.22 1009.19 1009.19 1009.24 1009.35 1009.51 1009.72 1009.97 1010.23
1017.28 1017.52 1017.72 1017.85 1017.89 1017.85 1017.74 1017.56 1017.35 1017.12 1016.91 1016.72 1016.56 1016.41 1016.24 1016.05 1015.79 1015.45 1015.02 1014.50 1013.91 1013.28 1012.63 1011.99 1011.39 1010.86 1010.39 1009.99 1009.65 1009.36 1009.12 1008.91 1008.73 1008.59 1008.48 1008.43 1008.44 1008.52 1008.67 1008.88 1009.15 1009.46 1009.79
1017.34 1017.58 1017.76 1017.87 1017.90 1017.84 1017.72 1017.56 1017.37 1017.18 1017.01 1016.86 1016.73 1016.61 1016.48 1016.31 1016.07 1015.74 1015.33 1014.82 1014.23 1013.58 1012.90 1012.23 1011.57 1010.96 1010.41 1009.91 1009.46 1009.07 1008.72 1008.40 1008.14 1007.92 1007.76 1007.67 1007.66 1007.75 1007.93 1008.18 1008.51 1008.87 1009.25
1017.35 1017.59 1017.75 1017.83 1017.83 1017.76 1017.63 1017.47 1017.30 1017.13 1016.98 1016.85 1016.74 1016.64 1016.52 1016.35 1016.12 1015.81 1015.41 1014.92 1014.35 1013.73 1013.06 1012.38 1011.71 1011.07 1010.46 1009.89 1009.35 1008.86 1008.40 1007.98 1007.61 1007.29 1007.06 1006.91 1006.86 1006.93 1007.11 1007.39 1007.74 1008.15 1008.58
1017.27 1017.51 1017.65 1017.71 1017.69 1017.60 1017.47 1017.32 1017.15 1017.00 1016.86 1016.73 1016.62 1016.50 1016.37 1016.19 1015.96 1015.65 1015.27 1014.80 1014.27 1013.69 1013.07 1012.42 1011.78 1011.14 1010.51 1009.89 1009.30 1008.72 1008.16 1007.64 1007.15 1006.73 1006.39 1006.16 1006.05 1006.06 1006.21 1006.48 1006.84 1007.28 1007.74
1017.09 1017.32 1017.45 1017.50 1017.47 1017.39 1017.26 1017.12 1016.96 1016.81 1016.67 1016.54 1016.40 1016.26 1016.09 1015.88 1015.62 1015.30 1014.92 1014.49 1014.00 1013.47 1012.91 1012.32 1011.73 1011.12 1010.51 1009.89 1009.26 1008.62 1007.98 1007.36 1006.77 1006.23 1005.78 1005.44 1005.23 1005.17 1005.26 1005.49 1005.83 1006.27 1006.76
1016.81 1017.04 1017.17 1017.22 1017.19 1017.12 1017.02 1016.89 1016.75 1016.61 1016.46 1016.31 1016.14 1015.95 1015.73 1015.47 1015.17 1014.83 1014.45 1014.03 1013.58 1013.10 1012.60 1012.09 1011.56 1011.01 1010.43 1009.82 1009.18 1008.51 1007.82 1007.12 1006.43 1005.79 1005.23 1004.77 1004.45 1004.29 1004.29 1004.45 1004.75 1005.18 1005.68
1016.48 1016.70 1016.83 1016.88 1016.88 1016.83 1016.75 1016.65 1016.53 1016.40 1016.24 1016.07 1015.86 1015.62 1015.35 1015.03 1014.69 1014.31 1013.91 1013.49 1013.06 1012.62 1012.18 1011.73 1011.26 1010.77 1010.24 1009.66 1009.04 1008.36 1007.63 1006.88 1006.13 1005.40 1004.73 1004.17 1003.73 1003.46 1003.36 1003.43 1003.67 1004.06 1004.56
1016.13 1016.34 1016.47 1016.52 1016.53 1016.51 1016.46 1016.39 1016.29 1016.17 1016.02 1015.83 1015.59 1015.31 1014.98 1014.61 1014.21 1013.79 1013.36 1012.93 1012.50 1012.08 1011.68 1011.27 1010.85 1010.41 1009.93 1009.39 1008.79 1008.13 1007.40 1006.62 1005.83 1005.04 1004.30 1003.64 1003.10 1002.72 1002.51 1002.49 1002.65 1002.98 1003.46
1015.79 1015.98 1016.09 1016.15 1016.17 1016.17 1016.14 1016.10 1016.03 1015.92 1015.77 1015.57 1015.32 1015.00 1014.63 1014.22 1013.78 1013.31 1012.84 1012.39 1011.95 1011.52 1011.12 1010.73 1010.34 1009.93 1009.48 1008.98 1008.42 1007.78 1007.08 1006.31 1005.51 1004.69 1003.91 1003.18 1002.56 1002.08 1001.77 1001.65 1001.73 1001.99 1002.43
1015.46 1015.63 1015.72 1015.77 1015.79 1015.79 1015.78 1015.76 1015.70 1015.61 1015.48 1015.28 1015.02 1014.69 1014.30 1013.86 1013.38 1012.88 1012.38 1011.89 1011.42 1010.97 1010.54 1010.14 1009.74 1009.34 1008.91 1008.44 1007.91 1007.31 1006.65 1005.91 1005.13 1004.33 1003.53 1002.77 1002.10 1001.54 1001.15 1000.93 1000.92 1001.10 1001.49
1015.15 1015.27 1015.34 1015.37 1015.37 1015.37 1015.36 1015.34 1015.30 1015.22 1015.09 1014.91 1014.66 1014.33 1013.95 1013.50 1013.01 1012.49 1011.96 1011.43 1010.91 1010.42 1009.95 1009.51 1009.08 1008.66 1008.23 1007.77 1007.27 1006.71 1006.10 1005.42 1004.68 1003.91 1003.13 1002.37 1001.67 1001.06 1000.60 1000.30 1000.20 1000.30 1000.61
1014.83 1014.91 1014.94 1014.93 1014.91 1014.89 1014.86 1014.83 1014.79 1014.72 1014.60 1014.43 1014.20 1013.90 1013.53 1013.10 1012.61 1012.09 1011.54 1010.98 1010.42 1009.88 1009.35 1008.85 1008.38 1007.92 1007.46 1007.00 1006.52 1006.00 1005.43 1004.82 1004.14 1003.43 1002.68 1001.94 1001.23 1000.59 1000.07 999.71 999.52 999.54 999.78
Thickness
5765 5766 5764 5764 5763 5761 5759 5755 5753 5751 5747 5742 5739 5735 5733 5733 5733 5731 5728 5725 5722 5720 5717 5714 5711 5708 5704 5701 5699 5696 5694 5693 5694 5692 5692 5698 5703 5705 5708 5711 5714 5717 5720
5759 5759 5760 5760 5759 5757 5756 5755 5752 5750 5746 5741 5739 5736 5733 5732 5731 5730 5727 5724 5721 5718 5715 5712 5709 5706 5703 5699 5696 5694 5689 5688 5690 5687 5683 5682 5688 5697 5704 5707 5709 5712 5716
5756 5755 5756 5755 5755 5754 5753 5753 5751 5749 5745 5742 5739 5735 5732 5730 5728 5726 5724 5723 5720 5717 5713 5710 5707 5705 5702 5697 5695 5692 5688 5683 5685 5686 5681 5675 5675 5684 5694 5701 5705 5707 5709
5754 5753 5752 5752 5752 5752 5753 5753 5750 5748 5745 5742 5736 5731 5726 5723 5724 5724 5723 5722 5720 5717 5713 5710 5707 5704 5701 5698 5695 5692 5688 5683 5680 5682 5683 5682 5681 5677 5679 5690 5698 5703 5705
5750 5749 5749 5749 5750 5751 5750 5749 5748 5745 5743 5739 5735 5730 5726 5725 5724 5723 5721 5719 5718 5716 5713 5710 5707 5703 5701 5698 5695 5691 5687 5684 5680 5678 5678 5679 5680 5680 5676 5677 5685 5693 5700
5745 5745 5746 5746 5746 5746 5745 5745 5743 5740 5739 5736 5733 5730 5726 5724 5721 5719 5717 5716 5716 5715 5713 5710 5706 5703 5700 5697 5694 5691 5688 5685 5682 5680 5678 5676 5675 5675 5676 5675 5679 5683 5691
5740 5739 5739 5739 5740 5740 5740 5739 5738 5736 5735 5734 5732 5730 5727 5724 5721 5718 5716 5714 5713 5712 5711 5709 5705 5702 5700 5698 5695 5692 5689 5686 5683 5681 5679 5678 5678 5678 5678 5676 5677 5680 5687
5736 5735 5736 5735 5735 5735 5735 5735 5734 5733 5732 5731 5730 5730 5728 5724 5722 5720 5717 5715 5712 5711 5710 5708 5705 5702 5700 5698 5695 5691 5689 5688 5685 5683 5681 5679 5679 5680 5679 5677 5676 5674 5679
5732 5732 5732 5733 5732 5732 5732 5732 5731 5729 5729 5728 5728 5727 5725 5723 5720 5719 5717 5715 5713 5712 5710 5707 5704 5702 5700 5698 5695 5691 5689 5687 5685 5684 5682 5680 5680 5681 5681 5680 5678 5674 5671
5729 5728 5728 5729 5729 5729 5729 5729 5728 5726 5726 5725 5724 5724 5722 5720 5718 5715 5713 5712 5711 5709 5707 5706 5703 5701 5699 5697 5694 5691 5689 5687 5685 5684 5682 5681 5680 5680 5680 5680 5680 5679 5675
5724 5724 5724 5725 5726 5726 5726 5725 5724 5723 5722 5721 5720 5719 5717 5716 5714 5711 5709 5708 5707 5707 5705 5704 5702 5700 5698 5696 5693 5690 5688 5686 5684 5684 5683 5681 5681 5680 5679 5679 5679 5678 5677
5722 5721 5720 5720 5720 5720 5720 5720 5719 5718 5717 5716 5715 5713 5712 5710 5708 5706 5705 5704 5703 5703 5702 5701 5699 5698 5696 5694 5692 5689 5687 5685 5683 5683 5682 5681 5681 5680 5679 5678 5678 5678 5679
5718 5717 5716 5715 5715 5715 5714 5714 5714 5712 5712 5710 5708 5706 5705 5703 5701 5700 5699 5698 5697 5697 5697 5697 5696 5695 5693 5692 5691 5689 5687 5685 5684 5683 5681 5680 5679 5677 5677 5677 5677 5677 5678
5713 5712 5710 5710 5710 5710 5709 5708 5708 5707 5706 5704 5701 5699 5697 5696 5695 5694 5693 5692 5691 5690 5690 5691 5691 5691 5690 5689 5688 5687 5685 5684 5683 5683 5681 5680 5678 5676 5676 5676 5675 5675 5674
5709 5707 5706 5705 5705 5704 5704 5702 5701 5701 5700 5697 5693 5691 5690 5689 5688 5686 5685 5685 5684 5684 5684 5684 5684 5685 5685 5685 5683 5681 5681 5680 5680 5680 5680 5679 5677 5676 5675 5674 5672 5672 5671
5704 5704 5703 5701 5700 5699 5698 5697 5695 5694 5693 5689 5686 5684 5682 5680 5678 5677 5677 5676 5676 5676 5676 5676 5676 5677 5678 5678 5677 5676 5675 5675 5675 5675 5676 5676 5675 5674 5672 5672 5671 5670 5668
5700 5698 5697 5696 5695 5695 5693 5690 5689 5688 5685 5681 5678 5676 5673 5671 5669 5668 5667 5666 5666 5667 5667 5667 5667 5668 5669 5671 5671 5670 5669 5668 5670 5671 5671 5673 5673 5671 5669 5668 5668 5667 5667
5696 5694 5692 5691 5691 5690 5687 5685 5683 5680 5676 5672 5669 5667 5665 5663 5661 5659 5657 5657 5657 5657 5657 5658 5658 5660 5662 5663 5663 5663 5662 5662 5664 5666 5667 5667 5667 5667 5665 5664 5663 5663 5663
5692 5689 5688 5686 5684 5681 5680 5677 5674 5670 5666 5662 5660 5658 5656 5654 5652 5650 5649 5648 5647 5647 5648 5649 5649 5650 5653 5654 5655 5654 5653 5654 5656 5659 5662 5662 5661 5662 5662 5659 5658 5659 5659
5687 5683 5681 5678 5675 5673 5671 5667 5664 5660 5656 5653 5651 5649 5648 5645 5643 5642 5640 5639 5638 5637 5637 5638 5639 5640 5643 5645 5645 5644 5643 5644 5647 5650 5654 5656 5656 5656 5656 5655 5655 5653 5655
5680 5677 5673 5669 5666 5665 5662 5657 5653 5649 5648 5645 5643 5640 5639 5637 5636 5633 5631 5628 5627 5626 5625 5626 5628 5629 5632 5633 5634 5633 5631 5633 5635 5639 5642 5647 5649 5650 5650 5651 5651 5652 5652
5672 5669 5665 5661 5659 5657 5653 5648 5643 5642 5640 5637 5634 5631 5629 5628 5627 5622 5619 5616 5613 5612 5611 5612 5614 5616 5618 5620 5621 5621 5622 5623 5623 5626 5630 5635 5639 5641 5642 5644 5646 5647 5647
5665 5661 5657 5653 5651 5648 5644 5638 5635 5633 5630 5627 5624 5622 5620 5617 5615 5611 5606 5603 5600 5597 5597 5597 5598 5600 5604 5606 5607 5608 5609 5610 5611 5614 5618 5622 5626 5630 5633 5636 5639 5640 5640
5657 5653 5649 5644 5641 5639 5635 5631 5628 5624 5621 5617 5614 5612 5609 5606 5603 5598 5595 5591 5587 5585 5583 5583 5583 5585 5588 5589 5590 5591 5593 5595 5597 5601 5605 5610 5613 5618 5623 5627 5630 5633 5635
5648 5644 5639 5635 5632 5630 5627 5623 5619 5615 5610 5607 5604 5601 5597 5593 5590 5587 5584 5581 5578 5574 5571 5571 5571 5572 5574 5577 5577 5577 5580 5582 5585 5587 5592 5596 5600 5606 5612 5618 5622 5625 5627
5640 5635 5631 5626 5623 5620 5617 5613 5610 5605 5600 5595 5592 5588 5585 5581 5578 5575 5574 5573 5569 5567 5566 5564 5562 5564 5565 5567 5569 5570 5571 5573 5575 5576 5581 5587 5591 5597 5602 5608 5613 5617 5621